DB0LS-15 Weather Reports


Display with metric or nautical units.
time (UTC)temp
F
wind
direction
speed
MPH
gust
MPH
rain 1hr
in
rain 24hr
in
rain mn
in
humidity
%
barometer
mb
20260504022538 61 273 2.0 4.0 0.00 0.00 0.00 61 994.5
20260504021534 61 267 2.0 4.0 0.00 0.00 0.00 61 994.6
20260504020530 61 274 2.0 4.0 0.00 0.00 0.00 61 994.4
20260504015526 61 264 3.0 6.0 0.00 0.00 0.00 59 994.3
20260504014523 62 263 2.0 4.0 0.00 0.00 0.00 57 994.2
20260504013519 62 244 2.0 2.0 0.00 0.00 0.00 55 994.1
20260504012515 63 271 2.0 4.0 0.00 0.00 0.00 54 994.0
20260504011611 63 264 2.0 4.0 0.00 0.00 0.00 54 993.8
20260504010607 63 259 2.0 4.0 0.00 0.00 0.00 53 993.7
20260504005604 64 275 2.0 4.0 0.00 0.00 0.00 53 993.7
20260504004600 64 270 3.0 4.0 0.00 0.00 0.00 52 993.7
20260504003556 65 280 3.0 4.0 0.00 0.00 0.00 51 993.4
20260504002552 65 289 1.0 4.0 0.00 0.00 0.00 52 993.3
20260504001549 65 274 2.0 2.0 0.00 0.00 0.00 52 993.4
20260504000545 65 270 1.0 2.0 0.00 0.00 0.00 51 993.4
20260503235541 65 270 1.0 2.0 0.00 0.00 0.00 50 993.4
20260503234538 65 0.0 2.0 0.00 0.00 0.00 50 993.3
20260503233534 66 277 1.0 2.0 0.00 0.00 0.00 49 993.2
20260503232530 66 301 1.0 4.0 0.00 0.00 0.00 48 993.1
20260503231526 65 288 1.0 4.0 0.00 0.00 0.00 49 993.2
20260503230522 64 23 0.0 2.0 0.00 0.00 0.00 53 993.1
20260503225518 64 0.0 0.0 0.00 0.00 0.00 52 993.1
20260503224615 65 299 4.0 8.0 0.00 0.00 0.00 50 993.3
20260503223611 67 267 2.0 4.0 0.00 0.00 0.00 46 993.0
20260503222607 67 205 2.0 4.0 0.00 0.00 0.00 45 992.8
20260503221604 67 198 2.0 4.0 0.00 0.00 0.00 45 992.7
20260503220600 67 168 2.0 6.0 0.00 0.00 0.00 45 992.6
20260503215556 67 181 1.0 2.0 0.00 0.00 0.00 45 992.7
20260503214552 67 212 2.0 4.0 0.00 0.00 0.00 44 992.8
20260503213549 67 250 2.0 7.0 0.00 0.00 0.00 44 992.8
20260503212545 68 244 2.0 4.0 0.00 0.00 0.00 43 992.6
20260503211541 69 190 3.0 6.0 0.00 0.00 0.00 41 992.4
20260503210537 69 165 4.0 8.0 0.00 0.00 0.00 41 992.2
20260503205533 70 141 5.0 11.0 0.00 0.00 0.00 39 992.3
20260503204600 70 154 4.0 7.0 0.00 0.00 0.00 39 992.2
20260503203556 70 173 4.0 8.0 0.00 0.00 0.00 39 992.3
20260503202552 71 176 4.0 7.0 0.00 0.00 0.00 38 992.4
20260503201548 70 130 3.0 7.0 0.00 0.00 0.00 39 992.3
20260503200545 70 175 4.0 8.0 0.00 0.00 0.00 39 992.4
20260503195541 70 130 3.0 7.0 0.00 0.00 0.00 39 992.5
20260503194537 71 139 3.0 4.0 0.00 0.00 0.00 39 992.5
20260503193533 71 166 3.0 7.0 0.00 0.00 0.00 38 992.5
20260503192530 71 148 3.0 7.0 0.00 0.00 0.00 38 992.4
20260503191526 72 154 3.0 4.0 0.00 0.00 0.00 36 992.4
20260503190522 72 135 3.0 7.0 0.00 0.00 0.00 36 992.4
20260503185518 73 181 2.0 6.0 0.00 0.00 0.00 35 992.5
20260503184615 73 166 1.0 4.0 0.00 0.00 0.00 34 992.5
20260503183611 73 164 2.0 4.0 0.00 0.00 0.00 34 992.4
20260503182607 74 161 2.0 4.0 0.00 0.00 0.00 33 992.2
20260503181603 74 163 3.0 6.0 0.00 0.00 0.00 32 992.3
20260503180559 74 177 2.0 4.0 0.00 0.00 0.00 32 992.3
20260503175556 75 165 3.0 6.0 0.00 0.00 0.00 31 992.3
20260503174552 76 168 2.0 4.0 0.00 0.00 0.00 31 992.3
20260503173548 76 168 2.0 4.0 0.00 0.00 0.00 30 992.2
20260503172545 77 189 2.0 4.0 0.00 0.00 0.00 30 992.3
20260503171541 77 207 3.0 6.0 0.00 0.00 0.00 29 992.3
20260503170537 78 134 5.0 9.0 0.00 0.00 0.00 28 992.3
20260503150522 81 177 5.0 9.0 0.00 0.00 0.00 27 992.8
20260503130537 81 278 6.0 13.0 0.00 0.00 0.00 31 994.2
20260503110551 79 242 5.0 11.0 0.00 0.00 0.00 33 995.3
20260503081541 73 260 5.0 11.0 0.00 0.00 0.00 36 996.7
20260503080538 73 262 6.0 11.0 0.00 0.00 0.00 36 996.8
20260503072522 70 248 2.0 6.0 0.00 0.00 0.00 43 996.8
20260503071518 69 215 4.0 7.0 0.00 0.00 0.00 44 996.9
20260503070614 68 216 5.0 9.0 0.00 0.00 0.00 46 996.9
20260503054537 61 184 3.0 7.0 0.00 0.00 0.00 50 997.0
20260503053534 61 187 4.0 7.0 0.00 0.00 0.00 50 997.0
20260503052530 60 174 3.0 6.0 0.00 0.00 0.00 50 996.8
20260503051526 59 186 4.0 6.0 0.00 0.00 0.00 50 996.9
20260503050522 59 177 4.0 6.0 0.00 0.00 0.00 51 996.8
20260503045518 58 180 3.0 4.0 0.00 0.00 0.00 51 996.8
20260503044614 58 184 4.0 6.0 0.00 0.00 0.00 50 996.9
20260503043611 58 161 4.0 6.0 0.00 0.00 0.00 51 996.8
20260503042607 58 185 3.0 6.0 0.00 0.00 0.00 51 996.8
20260503041557 58 176 3.0 6.0 0.00 0.00 0.00 50 996.7
20260503040553 58 171 3.0 6.0 0.00 0.00 0.00 51 996.7
20260503035550 58 184 3.0 4.0 0.00 0.00 0.00 51 996.8
20260503034546 57 173 3.0 4.0 0.00 0.00 0.00 51 996.6
20260503033542 58 185 3.0 6.0 0.00 0.00 0.00 50 996.7
20260503032538 58 180 3.0 4.0 0.00 0.00 0.00 50 996.7
20260503031534 58 191 3.0 6.0 0.00 0.00 0.00 49 996.9
20260503030530 58 183 3.0 4.0 0.00 0.00 0.00 49 996.9
20260503025527 59 216 3.0 6.0 0.00 0.00 0.00 48 996.8
20260503024523 59 199 3.0 4.0 0.00 0.00 0.00 48 996.9